Location: Pasadena, ca
(34.1243°N, 118.1037°W)
Time: 10:01:00
(UTC-07:00)

Tiangong 2 - Visible Passes

Search period start: 23 May 2018 00:00
Search period end: 02 June 2018 00:00
Orbit: 382 x 385 km, 42.8° (Epoch: 23 May)

Date Brightness Start Highest point End Pass type
(mag) Time Alt. Az. Time Alt. Az. Time Alt. Az.
23 May 2.8 21:11:49 10° W 21:14:42 33° NNW 21:17:36 10° NE visible
23 May 4.3 22:49:53 10° NW 22:51:06 15° NNW 22:51:06 15° NNW visible
24 May 3.8 21:49:39 10° WNW 21:51:59 19° N 21:54:18 10° NE visible
25 May 3.5 20:49:22 10° WNW 20:51:58 23° NNW 20:54:34 10° NE visible
25 May 3.8 22:27:14 10° NW 22:29:23 17° N 22:29:33 17° N visible
26 May 3.9 21:27:10 10° NW 21:29:19 17° N 21:31:27 10° NE visible
26 May 4.5 23:04:07 10° NW 23:04:38 13° NW 23:04:38 13° NW visible
27 May 3.7 20:26:55 10° WNW 20:29:15 19° N 20:31:34 10° NE visible
27 May 3.5 22:04:22 10° NW 22:06:42 19° N 22:07:27 17° NNE visible
28 May 3.8 21:04:29 10° NW 21:06:38 17° N 21:08:46 10° NE visible
28 May 3.8 22:41:02 10° NW 22:42:24 20° NNW 22:42:24 20° NNW visible
29 May 3.1 21:41:20 10° NW 21:43:58 23° NNE 21:45:07 19° NE visible
30 May 3.5 20:41:35 10° NW 20:43:54 18° N 20:46:13 10° NE visible
30 May 2.7 22:17:58 10° NW 22:20:02 34° NNW 22:20:02 34° NNW visible
31 May 2.5 21:18:14 10° NW 21:21:08 32° NNE 21:22:46 19° ENE visible
31 May 4.4 22:54:56 10° WNW 22:54:57 10° WNW 22:54:57 10° WNW visible
01 Jun 1.3 21:54:56 10° WNW 21:57:42 64° W 21:57:42 64° W visible
